,,,PA_Meas_PMT16A,,PR_Meas_QMR101_102,,RH_Meas_QMH101,,SR_Meas_QMS101,,TA_Meas_QMH101,,GenWind,,GenWind,
date,time,status,PA,status,PR,status,RH,status,SR,status,TA,status,DirAvg,status,SpdAvg,
2009-12-18, 00:00:04,VALID,1003,VALID,0,VALID,91.2731,VALID,0,VALID,23.3695,VALID,57,VALID,0,
2009-12-18, 00:01:04,VALID,1002.99,VALID,0,VALID,91.4486,VALID,0,VALID,23.3677,VALID,57,VALID,0,
2009-12-18, 00:02:04,VALID,1002.96,VALID,0,VALID,91.6241,VALID,0,VALID,23.3482,VALID,30,VALID,0,
2009-12-18, 00:03:04,VALID,1002.95,VALID,0,VALID,91.4791,VALID,0.112286,VALID,23.3287,VALID,21,VALID,0,
2009-12-18, 00:04:04,VALID,1002.94,VALID,0,VALID,91.5173,VALID,0,VALID,23.3287,VALID,20,VALID,0,
2009-12-18, 00:05:04,VALID,1002.93,VALID,0,VALID,91.502,VALID,0,VALID,23.311,VALID,20,VALID,0,
2009-12-18, 00:06:04,VALID,1002.91,VALID,0,VALID,91.5326,VALID,0,VALID,23.2915,VALID,20,VALID,1.02695,
2009-12-18, 00:07:04,VALID,1002.89,VALID,0,VALID,91.4105,VALID,0,VALID,23.2117,VALID,21,VALID,0.9375,
2009-12-18, 00:08:04,VALID,1002.86,VALID,0,VALID,91.5478,VALID,0,VALID,23.1939,VALID,23,VALID,0.929688,
2009-12-18, 00:09:04,VALID,1002.87,VALID,0,VALID,91.6699,VALID,0,VALID,23.1939,VALID,29,VALID,0.8625,
2009-12-18, 00:10:04,VALID,1002.85,VALID,0,VALID,91.708,VALID,0,VALID,23.1549,VALID,33,VALID,0.834375,
2009-12-18, 00:11:04,VALID,1002.82,VALID,0,VALID,91.8988,VALID,0,VALID,23.1744,VALID,37,VALID,0.81875,
2009-12-18, 00:12:04,VALID,1002.84,VALID,0,VALID,92.0514,VALID,0,VALID,23.1531,VALID,45,VALID,0.753516,
2009-12-18, 00:13:04,VALID,1002.83,VALID,0,VALID,92.0361,VALID,0,VALID,23.1744,VALID,45,VALID,0.638281,
2009-12-18, 00:14:04,VALID,1002.77,VALID,0,VALID,91.9293,VALID,0,VALID,23.1744,VALID,45,VALID,0.416406,
2009-12-18, 00:15:04,VALID,1002.77,VALID,0,VALID,91.7843,VALID,0,VALID,23.1159,VALID,45,VALID,0.317969,
2009-12-18, 00:16:04,VALID,1002.76,VALID,0,VALID,91.7538,VALID,0,VALID,23.0964,VALID,45,VALID,0,
2009-12-18, 00:17:04,VALID,1002.71,VALID,0,VALID,91.7309,VALID,0.112286,VALID,23.0573,VALID,45,VALID,0,
2009-12-18, 00:18:04,VALID,1002.71,VALID,0,VALID,91.7843,VALID,0,VALID,23.0166,VALID,45,VALID,0,
2009-12-18, 00:19:04,VALID,1002.67,VALID,0,VALID,91.9217,VALID,0,VALID,23.0378,VALID,47,VALID,0.337891,
2009-12-18, 00:20:04,VALID,1002.67,VALID,0,VALID,92.0743,VALID,0,VALID,23.0166,VALID,66,VALID,0.559766,
2009-12-18, 00:21:04,VALID,1002.68,VALID,0,VALID,92.2497,VALID,0,VALID,23.0361,VALID,82,VALID,0.520312,
2009-12-18, 00:22:04,VALID,1002.67,VALID,0,VALID,92.4176,VALID,0,VALID,23.0946,VALID,92,VALID,0.588281,
2009-12-18, 00:23:04,VALID,1002.68,VALID,0,VALID,92.3947,VALID,0,VALID,23.1549,VALID,93,VALID,0.421094,
2009-12-18, 00:24:04,VALID,1002.67,VALID,0,VALID,92.3947,VALID,0,VALID,23.1726,VALID,93,VALID,0.364453,
2009-12-18, 00:25:04,VALID,1002.66,VALID,0,VALID,92.3642,VALID,0,VALID,23.2117,VALID,93,VALID,0.246875,
2009-12-18, 00:26:04,VALID,1002.65,VALID,0,VALID,92.3947,VALID,0,VALID,23.2524,VALID,93,VALID,0.175781,
2009-12-18, 00:27:04,VALID,1002.67,VALID,0,VALID,92.3794,VALID,0,VALID,23.3127,VALID,93,VALID,0.303516,
2009-12-18, 00:28:04,VALID,1002.67,VALID,0,VALID,92.4176,VALID,0,VALID,23.3323,VALID,94,VALID,0.0808594,
2009-12-18, 00:29:04,VALID,1002.65,VALID,0,VALID,92.4328,VALID,0,VALID,23.3518,VALID,94,VALID,0.184766,
2009-12-18, 00:30:04,VALID,1002.63,VALID,0,VALID,92.4405,VALID,0,VALID,23.3908,VALID,94,VALID,0.21875,
2009-12-18, 00:31:04,VALID,1002.64,VALID,0,VALID,92.3871,VALID,0,VALID,23.389,VALID,94,VALID,0,
2009-12-18, 00:32:04,VALID,1002.64,VALID,0,VALID,92.3337,VALID,0,VALID,23.4298,VALID,94,VALID,0,
2009-12-18, 00:33:04,VALID,1002.62,VALID,0,VALID,92.2879,VALID,0,VALID,23.4298,VALID,94,VALID,0,
2009-12-18, 00:34:04,VALID,1002.61,VALID,0,VALID,92.2268,VALID,0,VALID,23.4493,VALID,93,VALID,0.418359,
2009-12-18, 00:35:04,VALID,1002.61,VALID,0,VALID,91.9522,VALID,0,VALID,23.4298,VALID,93,VALID,0.434375,
2009-12-18, 00:36:04,VALID,1002.59,VALID,0,VALID,91.8759,VALID,0,VALID,23.4298,VALID,95,VALID,0.707031,
2009-12-18, 00:37:04,VALID,1002.55,VALID,0,VALID,91.8072,VALID,0,VALID,23.428,VALID,102,VALID,0.814453,
2009-12-18, 00:38:04,VALID,1002.55,VALID,0,VALID,91.6928,VALID,0,VALID,23.4493,VALID,102,VALID,0.567578,
2009-12-18, 00:39:04,VALID,1002.53,VALID,0,VALID,91.6623,VALID,0,VALID,23.4475,VALID,102,VALID,0.410937,
2009-12-18, 00:40:04,VALID,1002.53,VALID,0,VALID,91.6699,VALID,0,VALID,23.428,VALID,79,VALID,0.335938,
2009-12-18, 00:41:04,VALID,1002.51,VALID,0,VALID,91.6394,VALID,0,VALID,23.4085,VALID,79,VALID,0.270312,
2009-12-18, 00:42:04,VALID,1002.49,VALID,0,VALID,91.5631,VALID,0,VALID,23.428,VALID,79,VALID,0,
2009-12-18, 00:43:04,VALID,1002.5,VALID,0,VALID,91.5097,VALID,0,VALID,23.4298,VALID,79,VALID,0,
2009-12-18, 00:44:04,VALID,1002.47,VALID,0,VALID,91.441,VALID,0,VALID,23.4103,VALID,79,VALID,0,
2009-12-18, 00:45:04,VALID,1002.47,VALID,0,VALID,91.441,VALID,0,VALID,23.389,VALID,79,VALID,0,
2009-12-18, 00:46:04,VALID,1002.45,VALID,0,VALID,91.5478,VALID,0,VALID,23.3908,VALID,79,VALID,0,
2009-12-18, 00:47:04,VALID,1002.43,VALID,0,VALID,91.647,VALID,0,VALID,23.3908,VALID,79,VALID,0,
2009-12-18, 00:48:04,VALID,1002.43,VALID,0,VALID,91.6394,VALID,0,VALID,23.3695,VALID,79,VALID,0,
2009-12-18, 00:49:04,VALID,1002.38,VALID,0,VALID,91.586,VALID,0,VALID,23.3908,VALID,79,VALID,0,
2009-12-18, 00:50:04,VALID,1002.35,VALID,0,VALID,91.5173,VALID,0,VALID,23.35,VALID,79,VALID,0,
2009-12-18, 00:51:04,VALID,1002.36,VALID,0,VALID,91.4563,VALID,0,VALID,23.35,VALID,79,VALID,0,
2009-12-18, 00:52:04,VALID,1002.33,VALID,0,VALID,91.4639,VALID,0,VALID,23.35,VALID,79,VALID,0,
2009-12-18, 00:53:04,VALID,1002.32,VALID,0,VALID,91.4791,VALID,0,VALID,23.3713,VALID,79,VALID,0,
2009-12-18, 00:54:04,VALID,1002.31,VALID,0,VALID,91.4334,VALID,0,VALID,23.311,VALID,79,VALID,0,
2009-12-18, 00:55:04,VALID,1002.29,VALID,0,VALID,91.502,VALID,0,VALID,23.3323,VALID,79,VALID,0,
2009-12-18, 00:56:04,VALID,1002.3,VALID,0,VALID,91.6775,VALID,0,VALID,23.3305,VALID,79,VALID,0.370703,
2009-12-18, 00:57:04,VALID,1002.29,VALID,0,VALID,91.9064,VALID,0,VALID,23.3908,VALID,77,VALID,0.547266,
2009-12-18, 00:58:04,VALID,1002.29,VALID,0,VALID,91.6546,VALID,0,VALID,23.4085,VALID,51,VALID,0.684375,
2009-12-18, 00:59:04,VALID,1002.25,VALID,0,VALID,91.4715,VALID,0,VALID,23.4085,VALID,48,VALID,0.569141,
2009-12-18, 01:00:04,VALID,1002.23,VALID,0,VALID,91.3647,VALID,0,VALID,23.4085,VALID,48,VALID,0.426953,
2009-12-18, 01:01:04,VALID,1002.23,VALID,0,VALID,91.3494,VALID,0,VALID,23.4493,VALID,48,VALID,0.179688,
2009-12-18, 01:02:04,VALID,1002.19,VALID,0,VALID,91.3113,VALID,0,VALID,23.4493,VALID,48,VALID,0,
2009-12-18, 01:03:04,VALID,1002.18,VALID,0,VALID,91.2579,VALID,0,VALID,23.4475,VALID,48,VALID,0,
2009-12-18, 01:04:04,VALID,1002.18,VALID,0,VALID,91.2121,VALID,0,VALID,23.4475,VALID,48,VALID,0,
2009-12-18, 01:05:04,VALID,1002.21,VALID,0,VALID,91.2121,VALID,0,VALID,23.4475,VALID,48,VALID,0,
2009-12-18, 01:06:04,VALID,1002.22,VALID,0,VALID,91.1129,VALID,0,VALID,23.4493,VALID,48,VALID,0,
2009-12-18, 01:07:04,VALID,1002.22,VALID,0,VALID,91.1816,VALID,0,VALID,23.428,VALID,48,VALID,0,
2009-12-18, 01:08:04,VALID,1002.21,VALID,0,VALID,91.1511,VALID,0,VALID,23.4298,VALID,48,VALID,0,
2009-12-18, 01:09:04,VALID,1002.2,VALID,0,VALID,91.2045,VALID,0,VALID,23.4103,VALID,48,VALID,0,
2009-12-18, 01:10:04,VALID,1002.18,VALID,0,VALID,91.2655,VALID,0,VALID,23.389,VALID,48,VALID,0,
2009-12-18, 01:11:04,VALID,1002.19,VALID,0,VALID,91.4257,VALID,0,VALID,23.4103,VALID,79,VALID,0.270312,
2009-12-18, 01:12:04,VALID,1002.19,VALID,0,VALID,91.4334,VALID,0,VALID,23.4085,VALID,80,VALID,0.0871094,
2009-12-18, 01:13:04,VALID,1002.18,VALID,0,VALID,91.3952,VALID,0,VALID,23.4085,VALID,80,VALID,0,
2009-12-18, 01:14:04,VALID,1002.17,VALID,0,VALID,91.3571,VALID,0,VALID,23.4298,VALID,66,VALID,0.567969,
2009-12-18, 01:15:04,VALID,1002.18,VALID,0,VALID,91.3037,VALID,0,VALID,23.4298,VALID,58,VALID,0.580859,
2009-12-18, 01:16:04,VALID,1002.18,VALID,0,VALID,91.2731,VALID,0,VALID,23.4475,VALID,80,VALID,0.825,
2009-12-18, 01:17:04,VALID,1002.16,VALID,0,VALID,91.1511,VALID,0,VALID,23.4671,VALID,80,VALID,0.460938,
2009-12-18, 01:18:04,VALID,1002.14,VALID,0,VALID,90.7696,VALID,0,VALID,23.428,VALID,87,VALID,0.575391,
2009-12-18, 01:19:04,VALID,1002.14,VALID,0,VALID,90.8611,VALID,0,VALID,23.4493,VALID,89,VALID,0.350781,
2009-12-18, 01:20:04,VALID,1002.15,VALID,0,VALID,90.8993,VALID,0,VALID,23.4493,VALID,89,VALID,0.439844,
2009-12-18, 01:21:04,VALID,1002.14,VALID,0,VALID,90.7772,VALID,0,VALID,23.428,VALID,89,VALID,0.208984,
2009-12-18, 01:22:04,VALID,1002.13,VALID,0,VALID,90.8535,VALID,0,VALID,23.4085,VALID,87,VALID,0.275391,
2009-12-18, 01:23:04,VALID,1002.17,VALID,0,VALID,91.0671,VALID,0,VALID,23.428,VALID,88,VALID,0,
2009-12-18, 01:24:04,VALID,1002.18,VALID,0,VALID,91.2426,VALID,0,VALID,23.4475,VALID,89,VALID,0,
2009-12-18, 01:25:04,VALID,1002.16,VALID,0,VALID,90.9374,VALID,0,VALID,23.4475,VALID,89,VALID,0,
2009-12-18, 01:26:04,VALID,1002.15,VALID,0,VALID,90.8764,VALID,0,VALID,23.4475,VALID,73,VALID,0.458203,
2009-12-18, 01:27:04,VALID,1002.14,VALID,0,VALID,90.9756,VALID,0,VALID,23.4475,VALID,36,VALID,0.644922,
2009-12-18, 01:28:04,VALID,1002.12,VALID,0,VALID,90.7696,VALID,0,VALID,23.4085,VALID,36,VALID,0.617578,
2009-12-18, 01:29:04,VALID,1002.11,VALID,0,VALID,91.1206,VALID,0,VALID,23.4085,VALID,36,VALID,0.573828,
2009-12-18, 01:30:04,VALID,1002.08,VALID,0,VALID,90.9069,VALID,0,VALID,23.3695,VALID,44,VALID,0.60625,
2009-12-18, 01:31:04,VALID,1002.05,VALID,0,VALID,90.9985,VALID,0,VALID,23.3305,VALID,47,VALID,0.351953,
2009-12-18, 01:32:04,VALID,1002.05,VALID,0,VALID,91.2808,VALID,0,VALID,23.3713,VALID,56,VALID,0.178125,
2009-12-18, 01:33:04,VALID,1002.07,VALID,0,VALID,91.296,VALID,0,VALID,23.35,VALID,56,VALID,0,
2009-12-18, 01:34:04,VALID,1002.1,VALID,0,VALID,91.4181,VALID,0,VALID,23.3305,VALID,56,VALID,0,
2009-12-18, 01:35:04,VALID,1002.12,VALID,0,VALID,91.441,VALID,0,VALID,23.3713,VALID,56,VALID,0,
2009-12-18, 01:36:04,VALID,1002.12,VALID,0,VALID,91.4181,VALID,0,VALID,23.3305,VALID,56,VALID,0,
2009-12-18, 01:37:04,VALID,1002.13,VALID,0,VALID,91.3342,VALID,0,VALID,23.2915,VALID,56,VALID,0,
2009-12-18, 01:38:04,VALID,1002.12,VALID,0,VALID,91.235,VALID,0,VALID,23.2737,VALID,56,VALID,0,
2009-12-18, 01:39:04,VALID,1002.12,VALID,0,VALID,91.3113,VALID,0,VALID,23.2347,VALID,56,VALID,0,
2009-12-18, 01:40:04,VALID,1002.1,VALID,0,VALID,91.4181,VALID,0,VALID,23.1939,VALID,56,VALID,0.059375,
2009-12-18, 01:41:04,VALID,1002.08,VALID,0,VALID,91.4715,VALID,0,VALID,23.1744,VALID,56,VALID,0,
2009-12-18, 01:42:04,VALID,1002.08,VALID,0,VALID,91.5554,VALID,0,VALID,23.1354,VALID,56,VALID,0,
2009-12-18, 01:43:04,VALID,1002.07,VALID,0,VALID,91.7843,VALID,0,VALID,23.1354,VALID,56,VALID,0,
2009-12-18, 01:44:04,VALID,1002.05,VALID,0,VALID,91.8072,VALID,0,VALID,23.1159,VALID,56,VALID,0,
2009-12-18, 01:45:04,VALID,1002.05,VALID,0,VALID,91.7691,VALID,0,VALID,23.0769,VALID,55,VALID,0,
2009-12-18, 01:46:04,VALID,1002.08,VALID,0,VALID,91.9217,VALID,0,VALID,23.0786,VALID,55,VALID,0,
2009-12-18, 01:47:04,VALID,1002.06,VALID,0,VALID,91.9369,VALID,0,VALID,23.0396,VALID,55,VALID,0,
2009-12-18, 01:48:04,VALID,1002.02,VALID,0,VALID,91.9293,VALID,0,VALID,23.0201,VALID,50,VALID,0.314063,
2009-12-18, 01:49:04,VALID,1002.02,VALID,0,VALID,92.1124,VALID,0,VALID,23.0006,VALID,49,VALID,0.109375,
2009-12-18, 01:50:04,VALID,1001.98,VALID,0,VALID,92.1963,VALID,0,VALID,22.9793,VALID,49,VALID,0,
2009-12-18, 01:51:04,VALID,1001.96,VALID,0,VALID,92.3794,VALID,0,VALID,22.9793,VALID,49,VALID,0,
2009-12-18, 01:52:04,VALID,1001.95,VALID,0,VALID,92.471,VALID,0,VALID,23.0396,VALID,49,VALID,0,
2009-12-18, 01:53:04,VALID,1001.94,VALID,0,VALID,92.4863,VALID,0,VALID,23.0378,VALID,49,VALID,0,
2009-12-18, 01:54:04,VALID,1001.93,VALID,0,VALID,92.5015,VALID,0,VALID,23.0183,VALID,49,VALID,0,
2009-12-18, 01:55:04,VALID,1001.93,VALID,0,VALID,92.616,VALID,0,VALID,23.0591,VALID,49,VALID,0,
2009-12-18, 01:56:04,VALID,1001.93,VALID,0,VALID,92.6465,VALID,0,VALID,23.0573,VALID,49,VALID,0,
2009-12-18, 01:57:04,VALID,1001.89,VALID,0,VALID,92.6083,VALID,0.112286,VALID,23.0769,VALID,49,VALID,0.003125,
2009-12-18, 01:58:04,VALID,1001.9,VALID,0,VALID,92.5473,VALID,0.112286,VALID,23.0361,VALID,49,VALID,0.166406,
2009-12-18, 01:59:04,VALID,1001.86,VALID,0,VALID,92.471,VALID,0,VALID,23.0166,VALID,49,VALID,0,
2009-12-18, 02:00:04,VALID,1001.85,VALID,0,VALID,92.4786,VALID,0.112286,VALID,23.0378,VALID,49,VALID,0,
2009-12-18, 02:01:04,VALID,1001.84,VALID,0,VALID,92.471,VALID,0,VALID,22.9988,VALID,49,VALID,0,
2009-12-18, 02:02:04,VALID,1001.83,VALID,0,VALID,92.3718,VALID,0,VALID,22.9598,VALID,49,VALID,0,
2009-12-18, 02:03:04,VALID,1001.85,VALID,0,VALID,92.3642,VALID,0,VALID,22.9403,VALID,49,VALID,0,
2009-12-18, 02:04:04,VALID,1001.81,VALID,0,VALID,92.4557,VALID,0.112286,VALID,22.919,VALID,49,VALID,0,
2009-12-18, 02:05:04,VALID,1001.81,VALID,0,VALID,92.532,VALID,0.112286,VALID,22.919,VALID,49,VALID,0,
2009-12-18, 02:06:04,VALID,1001.81,VALID,0,VALID,92.6465,VALID,0,VALID,22.9385,VALID,49,VALID,0,
2009-12-18, 02:07:04,VALID,1001.79,VALID,0,VALID,92.7609,VALID,0,VALID,22.9988,VALID,49,VALID,0,
2009-12-18, 02:08:04,VALID,1001.78,VALID,0,VALID,92.8601,VALID,0.112286,VALID,23.0166,VALID,49,VALID,0,
2009-12-18, 02:09:04,VALID,1001.78,VALID,0,VALID,92.9288,VALID,0.112286,VALID,23.0556,VALID,110,VALID,0.454297,
2009-12-18, 02:10:04,VALID,1001.75,VALID,0,VALID,92.8525,VALID,0,VALID,23.0751,VALID,111,VALID,0.351563,
2009-12-18, 02:11:04,VALID,1001.74,VALID,0,VALID,92.7914,VALID,0,VALID,23.0751,VALID,114,VALID,0,
2009-12-18, 02:12:04,VALID,1001.73,VALID,0,VALID,92.6923,VALID,0,VALID,23.0964,VALID,117,VALID,0,
2009-12-18, 02:13:04,VALID,1001.71,VALID,0,VALID,92.6541,VALID,0,VALID,23.1159,VALID,117,VALID,0,
2009-12-18, 02:14:04,VALID,1001.74,VALID,0,VALID,92.5778,VALID,0,VALID,23.1159,VALID,117,VALID,0,
2009-12-18, 02:15:04,VALID,1001.73,VALID,0,VALID,92.5091,VALID,0,VALID,23.1354,VALID,117,VALID,0,
2009-12-18, 02:16:04,VALID,1001.7,VALID,0,VALID,92.4176,VALID,0,VALID,23.0946,VALID,117,VALID,0,
2009-12-18, 02:17:04,VALID,1001.71,VALID,0,VALID,92.3337,VALID,0,VALID,23.1354,VALID,119,VALID,0.403906,
2009-12-18, 02:18:04,VALID,1001.68,VALID,0,VALID,92.1353,VALID,0,VALID,23.1159,VALID,126,VALID,0.486719,
2009-12-18, 02:19:04,VALID,1001.7,VALID,0,VALID,91.9369,VALID,0,VALID,23.1159,VALID,126,VALID,0.359375,
2009-12-18, 02:20:04,VALID,1001.71,VALID,0,VALID,91.7614,VALID,0,VALID,23.1159,VALID,126,VALID,0.216016,
2009-12-18, 02:21:04,VALID,1001.71,VALID,0,VALID,91.6394,VALID,0,VALID,23.1159,VALID,126,VALID,0.103516,
2009-12-18, 02:22:04,VALID,1001.71,VALID,0,VALID,91.5249,VALID,0,VALID,23.0964,VALID,125,VALID,0.238281,
2009-12-18, 02:23:04,VALID,1001.73,VALID,0,VALID,91.4181,VALID,0,VALID,23.0964,VALID,125,VALID,0,
2009-12-18, 02:24:04,VALID,1001.72,VALID,0,VALID,91.502,VALID,0,VALID,23.1159,VALID,96,VALID,0.267969,
2009-12-18, 02:25:04,VALID,1001.72,VALID,0,VALID,91.6775,VALID,0,VALID,23.0946,VALID,81,VALID,0.257031,
2009-12-18, 02:26:04,VALID,1001.73,VALID,0,VALID,91.7004,VALID,0,VALID,23.1354,VALID,81,VALID,0.420703,
2009-12-18, 02:27:04,VALID,1001.73,VALID,0,VALID,91.7996,VALID,0,VALID,23.1762,VALID,68,VALID,0.4875,
2009-12-18, 02:28:04,VALID,1001.71,VALID,0,VALID,91.8072,VALID,0,VALID,23.1762,VALID,60,VALID,0.636328,
2009-12-18, 02:29:04,VALID,1001.74,VALID,0,VALID,91.647,VALID,0,VALID,23.2152,VALID,56,VALID,0.7375,
2009-12-18, 02:30:04,VALID,1001.74,VALID,0,VALID,91.6241,VALID,0,VALID,23.2347,VALID,46,VALID,0.823438,
2009-12-18, 02:31:04,VALID,1001.75,VALID,0,VALID,91.3952,VALID,0,VALID,23.2542,VALID,38,VALID,0.836719,
2009-12-18, 02:32:04,VALID,1001.71,VALID,0,VALID,91.3037,VALID,0,VALID,23.2542,VALID,27,VALID,0.871484,
2009-12-18, 02:33:04,VALID,1001.74,VALID,0,VALID,90.5178,VALID,0,VALID,23.1566,VALID,23,VALID,0.982422,
2009-12-18, 02:34:04,VALID,1001.76,VALID,0,VALID,90.4034,VALID,0,VALID,23.0591,VALID,17,VALID,1.20117,
2009-12-18, 02:35:04,VALID,1001.79,VALID,0,VALID,90.8001,VALID,0,VALID,22.9598,VALID,14,VALID,1.20391,
2009-12-18, 02:36:04,VALID,1001.78,VALID,0,VALID,91.0671,VALID,0,VALID,22.9615,VALID,9,VALID,1.07656,
2009-12-18, 02:37:04,VALID,1001.8,VALID,0,VALID,91.2884,VALID,0,VALID,22.9225,VALID,9,VALID,1.01211,
2009-12-18, 02:38:04,VALID,1001.77,VALID,0,VALID,91.3876,VALID,0,VALID,22.9013,VALID,9,VALID,0.719141,
2009-12-18, 02:39:04,VALID,1001.76,VALID,0,VALID,91.6241,VALID,0,VALID,22.9225,VALID,9,VALID,0.408203,
2009-12-18, 02:40:04,VALID,1001.79,VALID,0,VALID,91.6546,VALID,0,VALID,22.903,VALID,9,VALID,0.463672,
2009-12-18, 02:41:04,VALID,1001.8,VALID,0,VALID,91.6775,VALID,0,VALID,22.903,VALID,9,VALID,0.406641,
2009-12-18, 02:42:04,VALID,1001.77,VALID,0,VALID,91.8988,VALID,0.112286,VALID,22.9013,VALID,9,VALID,0.333203,
2009-12-18, 02:43:04,VALID,1001.76,VALID,0,VALID,91.4639,VALID,0,VALID,22.8623,VALID,9,VALID,0.170312,
2009-12-18, 02:44:04,VALID,1001.77,VALID,0,VALID,91.2274,VALID,0,VALID,22.7842,VALID,9,VALID,0,
2009-12-18, 02:45:04,VALID,1001.78,VALID,0,VALID,91.7309,VALID,0,VALID,22.7647,VALID,10,VALID,0,
2009-12-18, 02:46:04,VALID,1001.74,VALID,0,VALID,91.8911,VALID,0,VALID,22.7435,VALID,10,VALID,0,
2009-12-18, 02:47:04,VALID,1001.78,VALID,0,VALID,92.1353,VALID,0,VALID,22.8037,VALID,10,VALID,0,
2009-12-18, 02:48:04,VALID,1001.77,VALID,0,VALID,92.2497,VALID,0,VALID,22.8232,VALID,10,VALID,0,
2009-12-18, 02:49:04,VALID,1001.78,VALID,0,VALID,92.1734,VALID,0,VALID,22.8232,VALID,10,VALID,0,
2009-12-18, 02:50:04,VALID,1001.77,VALID,0,VALID,92.2421,VALID,0,VALID,22.8037,VALID,10,VALID,0,
2009-12-18, 02:51:04,VALID,1001.81,VALID,0,VALID,92.3718,VALID,0,VALID,22.802,VALID,10,VALID,0,
2009-12-18, 02:52:04,VALID,1001.79,VALID,0,VALID,92.4328,VALID,0,VALID,22.8232,VALID,10,VALID,0,
2009-12-18, 02:53:04,VALID,1001.81,VALID,0,VALID,92.5015,VALID,0.112286,VALID,22.8427,VALID,10,VALID,0,
2009-12-18, 02:54:04,VALID,1001.81,VALID,0,VALID,92.5244,VALID,0,VALID,22.8623,VALID,10,VALID,0,
2009-12-18, 02:55:04,VALID,1001.78,VALID,0,VALID,92.5168,VALID,0.112286,VALID,22.841,VALID,10,VALID,0,
2009-12-18, 02:56:04,VALID,1001.77,VALID,0,VALID,92.5015,VALID,0,VALID,22.8623,VALID,10,VALID,0,
2009-12-18, 02:57:04,VALID,1001.8,VALID,0,VALID,92.5778,VALID,0,VALID,22.8623,VALID,10,VALID,0.240625,
2009-12-18, 02:58:04,VALID,1001.82,VALID,0,VALID,92.5702,VALID,0,VALID,22.8818,VALID,10,VALID,0.513281,
2009-12-18, 02:59:04,VALID,1001.81,VALID,0,VALID,92.6617,VALID,0,VALID,22.9013,VALID,10,VALID,0.433203,
2009-12-18, 03:00:04,VALID,1001.8,VALID,0,VALID,92.6617,VALID,0,VALID,22.9403,VALID,10,VALID,0.512109,
2009-12-18, 03:01:04,VALID,1001.8,VALID,0,VALID,92.6236,VALID,0,VALID,22.9403,VALID,10,VALID,0.635156,
2009-12-18, 03:02:04,VALID,1001.8,VALID,0,VALID,92.4863,VALID,0,VALID,22.9598,VALID,10,VALID,0.788672,
2009-12-18, 03:03:04,VALID,1001.78,VALID,0,VALID,92.3031,VALID,0,VALID,22.9403,VALID,10,VALID,0.770703,
2009-12-18, 03:04:04,VALID,1001.81,VALID,0,VALID,92.204,VALID,0,VALID,22.9013,VALID,10,VALID,0.777344,
2009-12-18, 03:05:04,VALID,1001.8,VALID,0,VALID,92.1734,VALID,0,VALID,22.9013,VALID,15,VALID,0.798828,
2009-12-18, 03:06:04,VALID,1001.78,VALID,0,VALID,92.1353,VALID,0,VALID,22.8818,VALID,15,VALID,0.619922,
2009-12-18, 03:07:04,VALID,1001.76,VALID,0,VALID,92.1353,VALID,0,VALID,22.8818,VALID,15,VALID,0.480469,
2009-12-18, 03:08:04,VALID,1001.76,VALID,0,VALID,92.1048,VALID,0,VALID,22.8818,VALID,15,VALID,0.423047,
2009-12-18, 03:09:04,VALID,1001.74,VALID,0,VALID,92.0971,VALID,0,VALID,22.8623,VALID,16,VALID,0.536328,
2009-12-18, 03:10:04,VALID,1001.73,VALID,0,VALID,92.1048,VALID,0,VALID,22.8215,VALID,34,VALID,0.568359,
2009-12-18, 03:11:04,VALID,1001.71,VALID,0,VALID,91.9369,VALID,0,VALID,22.8232,VALID,43,VALID,0.673437,
2009-12-18, 03:12:04,VALID,1001.67,VALID,0,VALID,92.0819,VALID,0,VALID,22.763,VALID,50,VALID,0.825391,
2009-12-18, 03:13:04,VALID,1001.65,VALID,0,VALID,92.0285,VALID,0,VALID,22.7842,VALID,53,VALID,0.903906,
2009-12-18, 03:14:04,VALID,1001.62,VALID,0,VALID,91.9522,VALID,0,VALID,22.7452,VALID,55,VALID,0.855859,
2009-12-18, 03:15:04,VALID,1001.63,VALID,0,VALID,91.9522,VALID,0,VALID,22.6867,VALID,56,VALID,0.845703,
2009-12-18, 03:16:04,VALID,1001.63,VALID,0,VALID,91.7691,VALID,0,VALID,22.6477,VALID,59,VALID,0.777344,
2009-12-18, 03:17:04,VALID,1001.62,VALID,0,VALID,91.7767,VALID,0,VALID,22.6087,VALID,60,VALID,0.679297,
2009-12-18, 03:18:04,VALID,1001.65,VALID,0,VALID,91.7614,VALID,0,VALID,22.5484,VALID,60,VALID,0.558594,
2009-12-18, 03:19:04,VALID,1001.66,VALID,0,VALID,91.7767,VALID,0,VALID,22.5111,VALID,60,VALID,0.644531,
2009-12-18, 03:20:04,VALID,1001.62,VALID,0,VALID,92.1353,VALID,0,VALID,22.4704,VALID,74,VALID,0.714844,
2009-12-18, 03:21:04,VALID,1001.65,VALID,0,VALID,92.2955,VALID,0,VALID,22.5306,VALID,77,VALID,0.665625,
2009-12-18, 03:22:04,VALID,1001.66,VALID,0,VALID,92.4023,VALID,0,VALID,22.5289,VALID,78,VALID,0.646875,
2009-12-18, 03:23:04,VALID,1001.65,VALID,0,VALID,92.5015,VALID,0,VALID,22.5501,VALID,79,VALID,0.500781,
2009-12-18, 03:24:04,VALID,1001.65,VALID,0,VALID,92.4557,VALID,0,VALID,22.5501,VALID,79,VALID,0.336719,
2009-12-18, 03:25:04,VALID,1001.68,VALID,0,VALID,92.3566,VALID,0,VALID,22.5501,VALID,79,VALID,0,
2009-12-18, 03:26:04,VALID,1001.67,VALID,0,VALID,92.3947,VALID,0,VALID,22.5501,VALID,78,VALID,0,
2009-12-18, 03:27:04,VALID,1001.67,VALID,0,VALID,92.3184,VALID,0,VALID,22.5306,VALID,78,VALID,0,
2009-12-18, 03:28:04,VALID,1001.69,VALID,0,VALID,92.2726,VALID,0,VALID,22.4899,VALID,78,VALID,0,
2009-12-18, 03:29:04,VALID,1001.68,VALID,0,VALID,92.2955,VALID,0,VALID,22.5306,VALID,78,VALID,0,
2009-12-18, 03:30:04,VALID,1001.71,VALID,0,VALID,92.3642,VALID,0,VALID,22.4899,VALID,78,VALID,0,
2009-12-18, 03:31:04,VALID,1001.74,VALID,0,VALID,92.4557,VALID,0,VALID,22.4899,VALID,78,VALID,0,
2009-12-18, 03:32:04,VALID,1001.74,VALID,0,VALID,92.6312,VALID,0,VALID,22.5501,VALID,78,VALID,0,
2009-12-18, 03:33:04,VALID,1001.76,VALID,0,VALID,92.5091,VALID,0,VALID,22.5501,VALID,78,VALID,0,
2009-12-18, 03:34:04,VALID,1001.79,VALID,0,VALID,92.6694,VALID,0,VALID,22.5484,VALID,72,VALID,0,
2009-12-18, 03:35:04,VALID,1001.8,VALID,0,VALID,92.5473,VALID,0,VALID,22.5289,VALID,41,VALID,0,
2009-12-18, 03:36:04,VALID,1001.8,VALID,0,VALID,92.4634,VALID,0,VALID,22.5306,VALID,41,VALID,0,
2009-12-18, 03:37:04,VALID,1001.82,VALID,0,VALID,92.3489,VALID,0,VALID,22.4916,VALID,41,VALID,0,
2009-12-18, 03:38:04,VALID,1001.85,VALID,0,VALID,92.4786,VALID,0,VALID,22.4509,VALID,41,VALID,0,
2009-12-18, 03:39:04,VALID,1001.86,VALID,0,VALID,92.5015,VALID,0,VALID,22.4509,VALID,43,VALID,0,
2009-12-18, 03:40:04,VALID,1001.87,VALID,0,VALID,92.5931,VALID,0,VALID,22.4721,VALID,75,VALID,0,
2009-12-18, 03:41:04,VALID,1001.9,VALID,0,VALID,92.6083,VALID,0,VALID,22.4721,VALID,75,VALID,0,
2009-12-18, 03:42:04,VALID,1001.89,VALID,0,VALID,92.471,VALID,0,VALID,22.4136,VALID,75,VALID,0,
2009-12-18, 03:43:04,VALID,1001.9,VALID,0,VALID,92.4481,VALID,0,VALID,22.4153,VALID,75,VALID,0,
2009-12-18, 03:44:04,VALID,1001.89,VALID,0,VALID,92.4405,VALID,0,VALID,22.3746,VALID,75,VALID,0,
2009-12-18, 03:45:04,VALID,1001.9,VALID,0,VALID,92.4176,VALID,0,VALID,22.3551,VALID,75,VALID,0,
2009-12-18, 03:46:04,VALID,1001.91,VALID,0,VALID,92.4252,VALID,0,VALID,22.3568,VALID,75,VALID,0,
2009-12-18, 03:47:04,VALID,1001.94,VALID,0,VALID,92.4634,VALID,0,VALID,22.3161,VALID,75,VALID,0,
2009-12-18, 03:48:04,VALID,1001.94,VALID,0,VALID,92.6236,VALID,0,VALID,22.3568,VALID,75,VALID,0,
2009-12-18, 03:49:04,VALID,1001.97,VALID,0,VALID,92.822,VALID,0,VALID,22.3941,VALID,54,VALID,0,
2009-12-18, 03:50:04,VALID,1002,VALID,0,VALID,92.883,VALID,0,VALID,22.4348,VALID,45,VALID,0,
2009-12-18, 03:51:04,VALID,1001.96,VALID,0,VALID,92.8601,VALID,0,VALID,22.4543,VALID,45,VALID,0,
2009-12-18, 03:52:04,VALID,1002.04,VALID,0,VALID,92.8525,VALID,0,VALID,22.4526,VALID,45,VALID,0,
2009-12-18, 03:53:04,VALID,1002.04,VALID,0,VALID,92.738,VALID,0,VALID,22.4331,VALID,45,VALID,0,